CAPE
0 2 138 95 337 1503 1406 1329 1091 894 491 301 420 183 17 0 0 46 194 119 21 30 280 324 473 265 209 179 215 423 347 137 268
0 41 4 539 1118 1703 1613 1553 1487 1265 826 607 399 318 92 19 26 284 426 341 145 111 224 50 282 163 67 118 193 205 261 231 466
0 110 1288 1827 1789 1725 1651 1557 1432 1257 1052 894 687 559 390 397 351 334 481 315 357 463 400 119 114 22 150 466 227 159 296 368 530
777 1086 1612 1787 1676 1736 1668 1579 1369 1415 1270 1145 965 822 726 734 709 620 393 0 12 179 457 825 562 0 81 554 410 230 489 324 740
1152 1316 1431 1764 1718 1637 1626 1442 1322 1370 1337 1173 1198 926 978 1027 982 986 477 36 3 642 949 1156 1126 905 479 803 523 530 670 479 979
826 1282 1116 1397 1833 1658 1589 1418 1227 1146 1067 1056 1155 1118 1294 1106 1186 1119 948 608 819 1229 1122 1340 1533 1289 1157 927 892 1090 1025 1305 1296
1123 1249 1217 1125 1300 1488 1577 1402 1263 1089 1029 1250 1169 1451 1345 1337 1218 1276 1208 1067 538 134 470 1009 598 380 38 10 4 28 105 633 781
1149 1211 1219 1201 1061 824 1247 1481 1376 1314 1266 1284 1431 1362 1465 1385 1249 1341 1256 649 255 197 157 93 23 0 0 0 0 0 0 5 46
1187 1184 1112 1188 1081 953 1061 1461 1475 1472 1392 1350 1450 1439 1493 1292 1409 1466 758 353 215 129 70 7 0 0 0 0 0 0 0 0 0
392 1184 973 1011 1006 1120 1212 1593 1454 1452 1654 1416 1676 1660 1478 1308 1500 962 609 423 120 79 76 2 0 0 0 0 0 0 0 0 0
975 1212 1134 1006 1142 1442 1469 1615 1467 1311 1867 1810 1796 1858 1639 1326 1018 754 529 229 113 79 17 22 0 0 0 0 0 0 0 0 0
1157 1202 1273 1267 1376 1541 1599 1647 1542 1486 2078 1755 1785 1905 1549 1233 961 827 508 348 260 63 39 0 0 0 0 0 0 0 0 0 0
1117 1433 1353 1452 1515 1664 1717 1767 1607 1825 2196 1925 1890 1832 1504 1254 1074 906 604 469 189 48 1 0 0 0 0 0 0 0 0 0 0
1469 1597 1412 1524 1657 1891 1872 1889 1848 2085 2254 2045 1931 1733 1505 1239 1160 855 623 263 21 14 0 0 0 0 0 0 0 0 0 0 0
2010 2107 2135 1454 1740 1922 2056 2003 2212 2401 2358 1903 1695 1164 982 780 656 469 142 20 1 0 0 0 0 0 0 0 0 0 0 0 0
2060 1926 2453 2510 2310 2433 2267 2288 2480 2476 1913 1397 1142 72 6 462 108 15 0 0 0 0 0 0 0 0 0 0 0 0 0 0 0
1951 1892 2124 2604 2673 2472 1855 1410 1623 1302 898 740 416 213 254 130 36 1 1 0 0 0 0 0 0 0 0 0 0 0 0 0 0
1486 1794 1761 1853 1762 1519 1296 861 878 959 1052 515 548 268 85 58 3 0 1 0 0 0 0 0 0 0 0 0 1 0 0 0 0
970 1159 467 566 783 1137 1257 1154 807 585 521 644 457 218 141 19 1 1 0 0 0 0 0 0 0 0 0 0 0 0 0 0 0
5 44 47 46 14 21 466 1360 1238 699 573 496 317 208 12 1 1 1 0 0 0 0 0 0 0 0 0 0 0 0 0 0 0
CIN
-0 -60 -698 -729 -568 -285 -271 -187 -169 -172 -203 -228 -121 -219 -211 -0 -0 -175 -139 -188 -236 -217 -109 -86 -85 -66 -76 -82 -48 -49 -59 -78 -72
-0 -362 -138 -441 -377 -274 -215 -152 -110 -113 -175 -205 -151 -198 -260 -278 -249 -165 -140 -129 -191 -193 -133 -177 -114 -149 -174 -86 -45 -39 -55 -75 -55
-0 -385 -335 -320 -356 -290 -212 -163 -142 -147 -172 -145 -146 -161 -176 -169 -178 -177 -141 -155 -152 -135 -121 -170 -196 -275 -136 -38 -26 -48 -41 -54 -63
-235 -261 -317 -310 -318 -258 -230 -199 -189 -139 -137 -127 -144 -137 -142 -133 -132 -134 -174 -0 -73 -161 -126 -78 -94 -26 -177 -62 -42 -45 -18 -51 -53
-205 -273 -330 -286 -284 -235 -194 -192 -142 -107 -122 -169 -137 -153 -117 -106 -107 -78 -177 -81 -245 -106 -69 -57 -48 -65 -93 -66 -74 -41 -11 -29 -43
-298 -298 -314 -317 -291 -266 -218 -224 -199 -174 -180 -170 -139 -126 -95 -108 -85 -90 -98 -127 -97 -56 -59 -43 -34 -35 -36 -53 -45 -30 -30 -21 -26
-292 -308 -317 -363 -358 -314 -265 -261 -223 -205 -207 -141 -144 -84 -99 -82 -102 -87 -96 -106 -146 -213 -179 -80 -126 -172 -145 -190 -212 -377 -262 -79 -58
-277 -299 -322 -365 -377 -446 -402 -275 -232 -179 -174 -180 -138 -116 -91 -105 -109 -91 -92 -167 -230 -255 -253 -294 -409 -0 -0 -0 -0 -0 -0 -87 -332
-249 -269 -304 -348 -380 -386 -429 -316 -264 -213 -197 -199 -171 -139 -120 -146 -107 -89 -167 -242 -254 -293 -330 -112 -0 -0 -0 -0 -0 -0 -0 -0 -0
-331 -224 -276 -369 -384 -368 -335 -299 -291 -265 -227 -216 -149 -159 -162 -162 -136 -188 -245 -286 -320 -322 -314 -114 -0 -0 -0 -0 -0 -0 -0 -0 -0
-231 -210 -279 -343 -362 -321 -314 -284 -276 -279 -243 -215 -187 -170 -170 -191 -219 -266 -291 -324 -337 -320 -369 -400 -0 -0 -0 -0 -0 -0 -0 -0 -0
-228 -243 -334 -378 -361 -362 -367 -316 -287 -295 -222 -251 -199 -150 -190 -225 -269 -265 -305 -312 -313 -373 -333 -19 -0 -0 -0 -0 -0 -0 -0 -0 -0
-244 -261 -357 -430 -411 -403 -370 -311 -303 -231 -200 -216 -180 -169 -211 -239 -249 -253 -295 -283 -322 -372 -355 -0 -0 -0 -0 -0 -0 -0 -0 -0 -0
-283 -305 -381 -421 -442 -376 -364 -314 -268 -216 -180 -195 -233 -206 -218 -256 -271 -295 -279 -323 -396 -450 -0 -0 -0 -0 -0 -0 -0 -0 -0 -0 -0
-206 -222 -249 -382 -366 -345 -324 -306 -244 -194 -173 -235 -204 -227 -244 -247 -257 -277 -381 -446 -192 -0 -0 -0 -0 -0 -0 -0 -0 -0 -0 -0 -0
-163 -199 -226 -311 -336 -305 -273 -226 -180 -173 -221 -237 -222 -521 -150 -195 -410 -507 -0 -0 -0 -0 -0 -0 -0 -0 -0 -0 -0 -0 -0 -0 -0
-199 -231 -196 -199 -192 -203 -302 -396 -305 -326 -340 -329 -146 -276 -223 -402 -485 -0 -0 -0 -0 -0 -0 -0 -0 -0 -0 -0 -0 -0 -0 -0 -0
-232 -241 -271 -272 -265 -287 -331 -420 -386 -333 -270 -292 -200 -65 -269 -410 -338 -0 -0 -0 -0 -0 -0 -0 -0 -0 -0 -0 -0 -0 -0 -0 -0
-309 -254 -431 -370 -329 -265 -232 -246 -350 -385 -370 -289 -189 -204 -278 -427 -0 -0 -0 -0 -0 -0 -0 -0 -0 -0 -0 -0 -0 -0 -0 -0 -0
-298 -584 -556 -551 -588 -589 -395 -177 -185 -249 -235 -304 -309 -314 -241 -0 -0 -0 -0 -0 -0 -0 -0 -0 -0 -0 -0 -0 -0 -0 -0 -0 -0
Wind_Speed
11 11 9 13 13 12 12 12 11 11 12 12 10 10 9 6 6 4 7 6 4 3 3 3 5 2 3 2 5 4 5 4 4
12 11 12 13 14 12 12 13 13 12 11 9 11 10 7 8 8 8 7 6 4 5 4 5 4 6 5 4 3 2 5 4 5
12 11 9 11 13 14 13 12 10 11 11 12 12 10 9 8 9 9 7 5 7 6 5 5 5 6 6 6 2 4 2 4 5
13 14 14 14 12 11 12 10 10 11 11 12 10 10 10 8 8 7 6 6 6 6 5 5 7 6 6 7 6 4 3 6 6
15 14 16 15 14 13 12 13 12 13 12 12 12 12 9 10 8 6 7 6 6 6 6 5 6 7 7 6 8 7 7 9 6
9 13 13 14 14 14 14 13 11 11 12 12 10 9 9 7 7 7 7 7 6 6 5 5 4 6 5 5 4 5 5 5 5
12 15 16 16 14 14 14 14 13 12 12 10 10 10 10 9 8 9 8 8 7 6 5 7 6 6 7 6 6 5 4 3 4
14 14 15 16 16 14 14 13 13 12 11 10 9 10 9 10 7 6 7 7 7 6 6 6 7 8 7 6 6 4 5 5 5
11 16 16 16 15 14 14 15 15 14 11 11 10 9 9 7 8 8 8 7 6 6 6 6 7 7 7 6 4 6 8 4 3
11 15 15 16 17 16 14 15 16 15 12 9 10 11 9 8 9 9 10 9 7 7 7 6 6 6 6 6 5 8 9 7 4
14 16 12 13 14 13 13 13 14 13 11 11 10 10 10 9 11 11 8 8 8 7 5 7 6 5 4 6 4 7 9 7 4
16 15 15 16 16 16 12 14 14 13 11 11 11 11 11 10 12 12 11 10 9 7 7 6 5 5 5 5 3 5 8 6 5
9 13 12 13 14 13 14 14 13 13 12 12 13 14 13 12 12 13 12 10 9 6 7 6 6 6 5 6 5 2 6 5 4
3 5 9 10 15 16 16 14 14 13 12 13 14 14 13 13 13 13 13 10 7 6 8 8 6 6 5 5 4 2 4 7 4
7 8 5 4 7 9 9 11 12 10 11 9 11 10 10 5 6 8 9 12 6 7 8 9 7 7 5 4 4 4 2 7 8
6 7 7 6 7 7 4 4 6 8 4 10 11 14 4 7 9 7 9 12 9 7 7 8 7 5 4 3 3 3 4 9 9
8 5 7 6 8 8 7 7 4 7 8 8 2 14 14 10 11 11 8 6 6 7 6 6 5 4 4 3 3 3 3 2 4
8 8 10 8 7 6 6 8 6 4 4 6 7 7 7 8 8 10 9 6 4 5 2 5 6 4 4 4 3 5 6 6 4
7 9 4 6 6 6 4 7 9 7 6 11 11 9 8 7 7 6 6 7 5 10 8 5 3 6 5 3 5 10 10 8 6
7 8 3 5 5 3 1 4 8 11 9 10 11 11 10 8 8 8 7 6 5 6 4 7 7 2 8 9 9 12 12 11 9
Wind_Direction
177 150 195 206 197 183 190 180 163 151 165 176 180 183 192 183 192 198 218 219 211 223 219 226 230 152 227 227 304 248 198 182 193
187 189 195 202 173 152 154 160 164 157 165 165 187 185 180 195 198 209 222 216 212 229 210 222 228 156 136 115 342 296 213 182 194
191 176 147 160 157 159 159 161 155 152 163 172 183 179 192 201 203 215 222 197 213 215 226 210 161 155 148 143 142 308 274 205 195
165 163 165 161 160 157 160 147 151 164 170 176 175 184 195 198 201 207 181 187 203 211 233 183 160 175 155 158 163 217 286 242 179
167 166 161 166 162 159 160 162 165 175 181 180 184 186 185 199 199 175 171 183 197 212 206 181 158 169 189 184 182 189 220 228 178
142 153 156 161 163 166 169 167 168 178 186 192 182 180 183 180 181 167 173 178 197 199 192 177 157 152 161 156 165 157 184 201 176
149 165 166 168 166 172 174 170 173 184 192 192 186 179 170 166 171 175 169 170 155 149 140 128 114 110 101 93 96 89 89 136 152
165 171 176 177 172 170 171 170 177 184 194 184 175 171 167 174 159 152 149 142 142 143 138 128 120 108 92 86 67 42 59 67 78
182 178 188 181 174 175 171 174 179 181 188 185 166 162 170 155 146 151 152 136 132 120 113 103 110 106 110 95 82 64 54 61 67
203 191 191 179 179 180 178 176 176 181 175 168 169 166 156 156 149 151 155 146 139 139 133 121 115 117 117 107 102 70 54 45 43
201 186 182 185 181 181 183 178 181 168 160 160 160 156 153 151 155 149 136 143 146 141 127 123 130 121 112 110 65 58 61 64 44
199 185 181 181 183 180 172 176 177 168 160 157 153 156 158 164 158 149 151 157 155 147 130 127 134 132 131 120 93 77 63 84 68
191 193 180 170 180 174 176 181 171 168 167 160 165 163 170 164 162 158 169 157 151 143 132 123 135 133 143 144 136 111 96 111 97
67 172 174 177 165 178 186 176 173 178 170 179 166 160 168 176 182 153 154 149 140 144 127 123 126 141 151 152 146 117 116 107 101
44 58 65 162 182 184 182 175 168 172 181 162 153 158 131 125 139 142 141 138 140 122 125 135 141 143 160 168 156 147 192 110 121
53 63 57 60 101 100 85 160 147 156 158 144 153 118 91 199 141 140 138 135 136 130 145 150 160 161 170 167 167 142 188 129 107
96 78 81 93 83 82 65 51 86 140 128 96 153 164 172 157 148 134 125 124 142 155 163 149 160 171 179 189 164 188 164 146 126
81 52 42 54 69 69 63 84 110 164 192 136 157 206 152 148 142 138 134 121 147 169 163 166 168 181 169 164 190 219 172 165 194
86 87 64 74 75 81 131 135 145 152 162 145 168 171 156 154 146 139 139 145 128 51 85 98 101 137 156 217 267 157 162 161 158
70 90 105 106 104 97 181 191 149 163 177 154 158 163 156 156 161 154 155 165 166 144 64 89 80 221 231 199 183 166 153 151 163